Estación municipal de Cànoves i Samalús (Vallès Oriental, P.N.del Montseny)

Consulta los datos en tiempo real de la estación municipal de Cànoves i Samalús





Hora UTC 05:15
Temperatura 20.9 ºC
Humedad 69.1 %
Presión 1021.1 hPa
Pluja 0.0 mm
Velocidad viento 4.7 km/h
Dirección viento NW
Radiación solar 3.3 W/m²

Webcam

Datos diarios 2026-09-03



Hora UTC (invierno +1h; verano +2h)
Temperatura (ºC) Humedad (%) Presión (hPa) Velocidad viento (km/h) Precipitación (mm) Radiación solar (W/m²)
Hora UTC Aire Humedad Presión Vel. Dir. Vel. Max Dir. Intent. máx 5 min. Rad. Sol.
00:05 20.6 72.7 1021.6 3.8 NNW 3.8 NW 0.0 0.1
00:10 20.7 72.0 1021.7 3.2 NW 7.1 NNW 0.0 0.1
00:15 20.6 71.4 1021.6 2.6 NNW 5.3 NNW 0.0 0.1
00:20 20.7 71.2 1021.7 2.6 NNW 7.4 N 0.0 0.1
00:25 20.7 71.0 1021.7 2.5 NNW 3.9 NNW 0.0 0.1
00:30 20.7 71.2 1021.7 2.3 NNW 3.2 NW 0.0 0.1
00:35 20.6 72.0 1021.7 3.2 NNW 4.6 NNW 0.0 0.1
00:40 20.6 72.1 1021.6 3.3 NNW 4.6 NNW 0.0 0.1
00:45 20.6 72.4 1021.6 2.3 NW 3.9 NNW 0.0 0.1
00:50 20.6 72.5 1021.6 2.4 NNW 3.9 NNW 0.0 0.1
00:55 20.5 72.9 1021.6 3.0 NW 4.2 NNW 0.0 0.1
01:00 20.6 72.7 1021.5 2.9 NNW 4.9 NW 0.0 0.1
01:05 20.5 72.8 1021.5 1.9 NW 3.9 NNW 0.0 0.1
01:10 20.5 73.0 1021.5 1.4 N 3.5 NW 0.0 0.1
01:15 20.5 73.0 1021.5 1.1 NW 3.5 NW 0.0 0.1
01:20 20.4 73.0 1021.5 1.8 NNW 4.2 NW 0.0 0.1
01:25 20.5 73.3 1021.5 1.8 NW 3.2 NW 0.0 0.1
01:30 20.5 73.1 1021.5 1.6 NW 2.8 NW 0.0 0.1
01:35 20.5 73.1 1021.5 1.1 NNW 4.2 NNW 0.0 0.1
01:40 20.7 72.6 1021.5 2.2 NNW 7.1 NNE 0.0 0.1
01:45 20.8 72.0 1021.5 1.6 NNW 7.4 NNE 0.0 0.1
01:50 20.9 71.5 1021.5 1.9 N 8.1 NNE 0.0 0.1
01:55 21.1 70.9 1021.5 0.7 N 3.2 NNW 0.0 0.1
02:00 21.0 71.1 1021.5 1.6 N 5.6 NW 0.0 0.1
02:05 21.1 70.8 1021.5 3.0 N 7.8 NE 0.0 0.1
02:10 21.3 70.1 1021.5 3.8 NNE 8.5 NW 0.0 0.1
02:15 21.5 69.1 1021.5 2.1 N 7.4 N 0.0 0.1
02:20 21.5 68.8 1021.5 3.2 NNE 10.6 N 0.0 0.1
02:25 21.5 68.9 1021.5 3.5 N 9.9 N 0.0 0.1
02:30 21.6 68.7 1021.5 2.0 N 8.5 NNW 0.0 0.1
02:35 21.5 68.8 1021.5 2.3 NNW 10.9 NNW 0.0 0.1
02:40 21.5 68.8 1021.5 1.7 NW 4.6 N 0.0 0.1
02:45 21.4 69.0 1021.4 1.1 N 8.8 NNE 0.0 0.1
02:50 21.3 69.3 1021.4 1.5 NNW 10.9 NW 0.0 0.1
02:55 21.3 69.4 1021.4 2.5 N 5.6 NNW 0.0 0.1
03:00 21.3 69.3 1021.4 1.7 NNE 6.0 NE 0.0 0.1
03:05 21.2 69.7 1021.4 1.7 NNW 7.8 NNW 0.0 0.1
03:10 21.1 69.6 1021.3 1.4 NW 4.2 NNE 0.0 0.1
03:15 21.2 69.3 1021.2 2.4 NW 14.8 NNE 0.0 0.1
03:20 21.2 69.1 1021.2 2.4 NW 6.0 WNW 0.0 0.1
03:25 21.2 68.9 1021.3 2.6 NNW 7.1 NW 0.0 0.1
03:30 21.3 68.8 1021.3 2.3 NW 7.1 NNW 0.0 0.1
03:35 21.3 68.6 1021.3 2.2 NNW 9.2 NNE 0.0 0.1
03:40 21.5 68.1 1021.2 3.0 NNW 12.7 NNW 0.0 0.1
03:45 21.7 67.1 1021.2 2.6 NNW 8.8 NNE 0.0 0.1
03:50 21.6 67.5 1021.1 2.2 NNW 7.8 NNW 0.0 0.1
03:55 21.5 68.2 1021.1 3.0 NNW 6.4 NNW 0.0 0.1
04:00 21.4 68.0 1021.0 4.5 NNW 9.5 NNW 0.0 0.1
04:05 21.5 67.5 1021.0 4.0 NW 7.8 NNE 0.0 0.1
04:10 21.5 67.3 1021.0 3.3 NW 6.7 NW 0.0 0.1
04:15 21.5 67.4 1021.0 3.7 NW 7.1 NW 0.0 0.1
04:20 21.4 67.6 1020.9 2.9 NNW 7.4 NNW 0.0 0.1
04:25 21.4 67.9 1020.9 2.3 N 4.6 NNW 0.0 0.1
04:30 21.3 68.2 1020.9 1.3 NNW 3.5 NNE 0.0 0.1
04:35 21.1 68.6 1021.0 2.4 NW 4.9 N 0.0 0.1
04:40 21.1 68.7 1021.0 3.5 NW 7.4 NNW 0.0 0.1
04:45 21.1 68.6 1021.0 4.1 NW 7.8 NNW 0.0 0.1
04:50 21.1 68.6 1021.0 3.0 NW 5.6 NW 0.0 0.1
04:55 21.1 68.7 1021.0 3.3 NW 7.4 NW 0.0 0.2
05:00 21.0 68.8 1021.0 3.3 NW 7.1 NW 0.0 0.5
05:05 20.9 68.8 1021.0 3.5 NW 8.5 NNW 0.0 1.1
05:10 20.9 68.9 1021.1 3.4 NW 7.4 NNW 0.0 1.9
05:15 20.9 69.1 1021.1 4.7 NW 9.9 NW 0.0 3.3
Máxima 21.7 73.3 1021.7 4.7 NW 14.8 NNE 0.0 3.3
Mínima 20 67.1 1020.9
Total 0.0